LEGION 1

Last updated on Sun Jun 21 2026 00:02:53 GMT+0000 (Coordinated Universal Time)

1 59625U 24081A 26171.45980492 .00002623 00000+0 13730-3 0 9999 2 59625 97.5015 249.2820 0009187 6.7145 353.4210 15.16685063118033
UTC large
Height (km)
Speed (km/s)
/
Latitude / Longitude
Inclination (degrees)
Orbital Period (minutes)
Azimuth
Elevation
Range (km)
Doppler Factor

Next 0 passes for location: London (51.5072 / 0.1276)

No passes found over London.
LEGION 1